Tracking 17784 objects as of 25-July-2016
HD Live streaming from Space Station
objects crossing your sky now

COSMOS 2318 (GLONASS)

Track COSMOS 2318 (GLONASS) now!
COSMOS 2318 (GLONASS) is classified as:


NORAD ID: 23622
Int'l Code: 1995-037C
Perigee: 19,078.7 km
Apogee: 19,195.7 km
Inclination: 66.5 °
Period: 675.7 minutes
Semi major axis: 25508 km
RCS: 3.5243 m2 (large)
Launch date: July 24, 1995
Source: Commonwealth of Independent States (former USSR) (CIS)
Launch site: TYURATAM MISSILE AND SPACE COMPLEX (TTMTR)
SV:
Your satellite tracking list
Your tracking list is empty





NASA's NSSDC Master Catalog

Two Line Element Set (TLE):
1 23622U 95037C   16205.41497321 -.00000027 +00000-0 +00000-0 0  9994
2 23622 066.4759 320.9724 0022933 110.4910 300.8157 02.13101269163184
Source of the keplerian elements: AFSPC

N2YO: 814